Wetterdaten: Donnerstag, 10.04.2014
Datum Zeit Temperatur Luftfeuchte Luftdruck Regen Wind Richtung Richtung Taupunkt Windchill Windben
10.04.2014 00:00 4,8 C 63 % 1023,9 hPa 0,0 l/m 0,0 km/h (0 Bft) SW 225 -1,6 C 0,0 C 0,0 km/h (0 Bft)
10.04.2014 00:05 4,8 C 64 % 1023,9 hPa 0,0 l/m 0,0 km/h (0 Bft) SW 225 -1,4 C 0,0 C 0,0 km/h (0 Bft)
10.04.2014 00:10 4,8 C 64 % 1023,8 hPa 0,0 l/m 0,0 km/h (0 Bft) SW 225 -1,4 C 0,0 C 0,0 km/h (0 Bft)
10.04.2014 00:15 4,9 C 64 % 1023,8 hPa 0,0 l/m 0,0 km/h (0 Bft) SW 225 -1,3 C 0,0 C 0,0 km/h (0 Bft)
10.04.2014 00:20 4,6 C 65 % 1023,8 hPa 0,0 l/m 0,0 km/h (0 Bft) SW 225 -1,4 C 0,0 C 0,0 km/h (0 Bft)
10.04.2014 00:25 4,4 C 66 % 1023,8 hPa 0,0 l/m 0,0 km/h (0 Bft) SW 225 -1,4 C 0,0 C 0,0 km/h (0 Bft)
10.04.2014 00:30 4,7 C 66 % 1023,6 hPa 0,0 l/m 0,0 km/h (0 Bft) SW 225 -1,1 C 0,0 C 0,0 km/h (0 Bft)
10.04.2014 00:35 4,8 C 66 % 1023,6 hPa 0,0 l/m 0,0 km/h (0 Bft) SW 225 -1,0 C 0,0 C 0,0 km/h (0 Bft)
10.04.2014 00:40 4,8 C 66 % 1023,6 hPa 0,0 l/m 0,0 km/h (0 Bft) SW 225 -1,0 C 0,0 C 0,0 km/h (0 Bft)
10.04.2014 00:45 4,7 C 66 % 1023,6 hPa 0,0 l/m 0,0 km/h (0 Bft) SW 225 -1,1 C 0,0 C 0,0 km/h (0 Bft)
10.04.2014 00:50 4,6 C 66 % 1023,4 hPa 0,0 l/m 0,0 km/h (0 Bft) SW 225 -1,2 C 0,0 C 0,0 km/h (0 Bft)
10.04.2014 00:55 4,5 C 66 % 1023,4 hPa 0,0 l/m 0,0 km/h (0 Bft) SW 225 -1,3 C 0,0 C 0,0 km/h (0 Bft)
10.04.2014 01:00 4,4 C 67 % 1023,4 hPa 0,0 l/m 0,0 km/h (0 Bft) SW 225 -1,2 C 0,0 C 0,0 km/h (0 Bft)
10.04.2014 01:05 4,2 C 67 % 1023,4 hPa 0,0 l/m 0,0 km/h (0 Bft) SW 225 -1,4 C 0,0 C 0,0 km/h (0 Bft)
10.04.2014 01:10 4,1 C 67 % 1023,3 hPa 0,0 l/m 0,0 km/h (0 Bft) SW 225 -1,5 C 0,0 C 0,0 km/h (0 Bft)
10.04.2014 01:15 4,1 C 67 % 1023,3 hPa 0,0 l/m 0,0 km/h (0 Bft) SW 225 -1,5 C 0,0 C 0,0 km/h (0 Bft)
10.04.2014 01:20 4,0 C 68 % 1023,3 hPa 0,0 l/m 0,0 km/h (0 Bft) SW 225 -1,4 C 0,0 C 0,0 km/h (0 Bft)
10.04.2014 01:25 3,9 C 68 % 1023,3 hPa 0,0 l/m 0,0 km/h (0 Bft) SW 225 -1,5 C 0,0 C 0,0 km/h (0 Bft)
10.04.2014 01:30 3,9 C 69 % 1023,0 hPa 0,0 l/m 0,0 km/h (0 Bft) SW 225 -1,3 C 0,0 C 0,0 km/h (0 Bft)
10.04.2014 01:35 3,6 C 69 % 1023,0 hPa 0,0 l/m 0,0 km/h (0 Bft) SW 225 -1,5 C 0,0 C 0,0 km/h (0 Bft)
10.04.2014 01:40 3,5 C 69 % 1023,0 hPa 0,0 l/m 0,0 km/h (0 Bft) SW 225 -1,6 C 0,0 C 0,0 km/h (0 Bft)
10.04.2014 01:45 3,4 C 70 % 1022,8 hPa 0,0 l/m 0,0 km/h (0 Bft) SW 225 -1,5 C 0,0 C 0,0 km/h (0 Bft)
10.04.2014 01:50 3,2 C 70 % 1022,8 hPa 0,0 l/m 0,0 km/h (0 Bft) SW 225 -1,7 C 0,0 C 0,0 km/h (0 Bft)
10.04.2014 01:55 3,1 C 71 % 1022,8 hPa 0,0 l/m 0,0 km/h (0 Bft) SW 225 -1,6 C 0,0 C 0,0 km/h (0 Bft)
10.04.2014 02:00 3,0 C 71 % 1022,8 hPa 0,0 l/m 0,0 km/h (0 Bft) SW 225 -1,7 C 0,0 C 0,0 km/h (0 Bft)
10.04.2014 02:05 2,9 C 73 % 1022,3 hPa 0,0 l/m 0,0 km/h (0 Bft) SW 225 -1,5 C 0,0 C 0,0 km/h (0 Bft)
10.04.2014 02:10 2,8 C 73 % 1022,3 hPa 0,0 l/m 0,0 km/h (0 Bft) SW 225 -1,5 C 0,0 C 0,0 km/h (0 Bft)
10.04.2014 02:15 2,7 C 74 % 1022,3 hPa 0,0 l/m 0,0 km/h (0 Bft) SW 225 -1,5 C 0,0 C 0,0 km/h (0 Bft)
10.04.2014 02:20 2,6 C 74 % 1022,3 hPa 0,0 l/m 0,0 km/h (0 Bft) SW 225 -1,6 C 0,0 C 0,0 km/h (0 Bft)
10.04.2014 02:25 2,6 C 74 % 1022,4 hPa 0,0 l/m 0,0 km/h (0 Bft) SW 225 -1,6 C 0,0 C 0,0 km/h (0 Bft)
10.04.2014 02:30 2,6 C 74 % 1022,4 hPa 0,0 l/m 0,0 km/h (0 Bft) SW 225 -1,6 C 0,0 C 0,0 km/h (0 Bft)
10.04.2014 02:35 2,7 C 74 % 1022,4 hPa 0,0 l/m 0,0 km/h (0 Bft) SW 225 -1,5 C 0,0 C 0,0 km/h (0 Bft)
10.04.2014 02:40 2,7 C 74 % 1022,4 hPa 0,0 l/m 0,0 km/h (0 Bft) SW 225 -1,5 C 0,0 C 0,0 km/h (0 Bft)
10.04.2014 02:45 2,7 C 75 % 1022,1 hPa 0,0 l/m 0,0 km/h (0 Bft) SW 225 -1,3 C 0,0 C 0,0 km/h (0 Bft)
10.04.2014 02:50 2,6 C 75 % 1022,1 hPa 0,0 l/m 0,0 km/h (0 Bft) SW 225 -1,4 C 0,0 C 0,0 km/h (0 Bft)
10.04.2014 02:55 2,7 C 75 % 1022,1 hPa 0,0 l/m 0,0 km/h (0 Bft) SW 225 -1,3 C 0,0 C 0,0 km/h (0 Bft)
10.04.2014 03:00 2,7 C 74 % 1022,1 hPa 0,0 l/m 0,0 km/h (0 Bft) SW 225 -1,5 C 0,0 C 0,0 km/h (0 Bft)
10.04.2014 03:05 2,8 C 74 % 1021,9 hPa 0,0 l/m 0,0 km/h (0 Bft) SW 225 -1,4 C 0,0 C 0,0 km/h (0 Bft)
10.04.2014 03:10 2,5 C 75 % 1021,9 hPa 0,0 l/m 0,0 km/h (0 Bft) SW 225 -1,5 C 0,0 C 0,0 km/h (0 Bft)
10.04.2014 03:15 2,5 C 75 % 1021,9 hPa 0,0 l/m 0,0 km/h (0 Bft) SW 225 -1,5 C 0,0 C 0,0 km/h (0 Bft)
10.04.2014 03:20 2,6 C 75 % 1021,9 hPa 0,0 l/m 0,0 km/h (0 Bft) SW 225 -1,4 C 0,0 C 0,0 km/h (0 Bft)
10.04.2014 03:25 2,8 C 75 % 1021,9 hPa 0,0 l/m 0,0 km/h (0 Bft) SW 225 -1,2 C 0,0 C 0,0 km/h (0 Bft)
10.04.2014 03:30 2,8 C 76 % 1021,9 hPa 0,0 l/m 0,0 km/h (0 Bft) SW 225 -1,0 C 0,0 C 0,0 km/h (0 Bft)
10.04.2014 03:35 2,8 C 76 % 1021,9 hPa 0,0 l/m 0,0 km/h (0 Bft) SW 225 -1,0 C 0,0 C 0,0 km/h (0 Bft)
10.04.2014 03:40 3,1 C 76 % 1021,9 hPa 0,0 l/m 0,0 km/h (0 Bft) SW 225 -0,7 C 0,0 C 0,0 km/h (0 Bft)
10.04.2014 03:45 3,5 C 74 % 1021,7 hPa 0,0 l/m 0,0 km/h (0 Bft) SW 225 -0,7 C 0,0 C 0,0 km/h (0 Bft)
10.04.2014 03:50 3,7 C 72 % 1021,7 hPa 0,0 l/m 0,0 km/h (0 Bft) SW 225 -0,9 C 0,0 C 0,0 km/h (0 Bft)
10.04.2014 03:55 3,9 C 71 % 1021,7 hPa 0,0 l/m 0,0 km/h (0 Bft) SW 225 -0,9 C 0,0 C 0,0 km/h (0 Bft)
10.04.2014 04:00 3,6 C 71 % 1021,7 hPa 0,0 l/m 0,0 km/h (0 Bft) SW 225 -1,2 C 0,0 C 0,0 km/h (0 Bft)
10.04.2014 04:05 3,8 C 70 % 1021,6 hPa 0,0 l/m 0,0 km/h (0 Bft) SW 225 -1,2 C 0,0 C 0,0 km/h (0 Bft)
10.04.2014 04:10 3,7 C 70 % 1021,6 hPa 0,0 l/m 0,0 km/h (0 Bft) SW 225 -1,3 C 0,0 C 0,0 km/h (0 Bft)
10.04.2014 04:15 3,4 C 71 % 1021,6 hPa 0,0 l/m 0,0 km/h (0 Bft) SW 225 -1,3 C 0,0 C 0,0 km/h (0 Bft)
10.04.2014 04:20 3,5 C 71 % 1021,6 hPa 0,0 l/m 0,0 km/h (0 Bft) SW 225 -1,3 C 0,0 C 0,0 km/h (0 Bft)
10.04.2014 04:25 3,4 C 71 % 1021,2 hPa 0,0 l/m 0,0 km/h (0 Bft) SW 225 -1,3 C 0,0 C 0,0 km/h (0 Bft)
10.04.2014 04:30 3,4 C 71 % 1021,2 hPa 0,0 l/m 0,0 km/h (0 Bft) SW 225 -1,3 C 0,0 C 0,0 km/h (0 Bft)
10.04.2014 04:35 3,4 C 71 % 1021,2 hPa 0,0 l/m 0,0 km/h (0 Bft) SW 225 -1,3 C 0,0 C 0,0 km/h (0 Bft)
10.04.2014 04:40 3,4 C 71 % 1021,2 hPa 0,0 l/m 0,0 km/h (0 Bft) SW 225 -1,3 C 0,0 C 0,0 km/h (0 Bft)
10.04.2014 04:45 3,9 C 69 % 1021,2 hPa 0,0 l/m 0,0 km/h (0 Bft) SW 225 -1,3 C 0,0 C 0,0 km/h (0 Bft)
10.04.2014 04:50 4,3 C 67 % 1021,1 hPa 0,0 l/m 0,0 km/h (0 Bft) SW 225 -1,3 C 0,0 C 0,0 km/h (0 Bft)
10.04.2014 04:55 4,5 C 66 % 1021,1 hPa 0,0 l/m 0,0 km/h (0 Bft) SW 225 -1,3 C 0,0 C 0,0 km/h (0 Bft)
10.04.2014 05:00 4,5 C 66 % 1021,1 hPa 0,0 l/m 0,0 km/h (0 Bft) SW 225 -1,3 C 0,0 C 0,0 km/h (0 Bft)
10.04.2014 05:05 4,4 C 66 % 1021,1 hPa 0,0 l/m 0,0 km/h (0 Bft) SW 225 -1,4 C 0,0 C 0,0 km/h (0 Bft)
10.04.2014 05:10 4,6 C 66 % 1021,0 hPa 0,0 l/m 0,0 km/h (0 Bft) SW 225 -1,2 C 0,0 C 0,0 km/h (0 Bft)
10.04.2014 05:15 3,8 C 67 % 1021,0 hPa 0,0 l/m 0,0 km/h (0 Bft) SW 225 -1,8 C 0,0 C 0,0 km/h (0 Bft)
10.04.2014 05:20 3,4 C 68 % 1021,0 hPa 0,0 l/m 0,0 km/h (0 Bft) SW 225 -1,9 C 0,0 C 0,0 km/h (0 Bft)
10.04.2014 05:25 3,1 C 70 % 1021,0 hPa 0,0 l/m 0,0 km/h (0 Bft) SW 225 -1,8 C 0,0 C 0,0 km/h (0 Bft)
10.04.2014 05:30 3,2 C 70 % 1021,2 hPa 0,0 l/m 0,0 km/h (0 Bft) SW 225 -1,7 C 0,0 C 0,0 km/h (0 Bft)
10.04.2014 05:35 3,3 C 70 % 1021,2 hPa 0,0 l/m 0,0 km/h (0 Bft) SW 225 -1,6 C 0,0 C 0,0 km/h (0 Bft)
10.04.2014 05:40 3,2 C 70 % 1021,2 hPa 0,0 l/m 0,0 km/h (0 Bft) SW 225 -1,7 C 0,0 C 0,0 km/h (0 Bft)
10.04.2014 05:45 3,8 C 71 % 1021,2 hPa 0,0 l/m 0,0 km/h (0 Bft) SW 225 -1,0 C 0,0 C 0,0 km/h (0 Bft)
10.04.2014 05:50 4,7 C 70 % 1021,1 hPa 0,0 l/m 0,0 km/h (0 Bft) SW 225 -0,3 C 0,0 C 0,0 km/h (0 Bft)
10.04.2014 05:55 5,0 C 68 % 1021,1 hPa 0,0 l/m 0,0 km/h (0 Bft) SW 225 -0,4 C 0,0 C 0,0 km/h (0 Bft)
10.04.2014 06:00 5,3 C 66 % 1021,1 hPa 0,0 l/m 0,0 km/h (0 Bft) SW 225 -0,5 C 0,0 C 0,0 km/h (0 Bft)
10.04.2014 06:05 5,4 C 64 % 1021,1 hPa 0,0 l/m 0,0 km/h (0 Bft) SW 225 -0,9 C 0,0 C 0,0 km/h (0 Bft)
10.04.2014 06:10 5,3 C 64 % 1021,1 hPa 0,0 l/m 0,0 km/h (0 Bft) SW 225 -0,9 C 0,0 C 0,0 km/h (0 Bft)
10.04.2014 06:15 5,4 C 64 % 1021,1 hPa 0,0 l/m 0,0 km/h (0 Bft) SW 225 -0,9 C 0,0 C 0,0 km/h (0 Bft)
10.04.2014 06:20 5,4 C 64 % 1021,1 hPa 0,0 l/m 0,0 km/h (0 Bft) SW 225 -0,9 C 0,0 C 0,0 km/h (0 Bft)
10.04.2014 06:25 5,4 C 64 % 1021,1 hPa 0,0 l/m 0,0 km/h (0 Bft) SW 225 -0,9 C 0,0 C 0,0 km/h (0 Bft)
10.04.2014 06:29 5,4 C 64 % 1021,3 hPa 0,0 l/m 0,0 km/h (0 Bft) SW 225 -0,9 C 0,0 C 0,0 km/h (0 Bft)
10.04.2014 06:30 5,4 C 64 % 1021,3 hPa 0,0 l/m 0,0 km/h (0 Bft) SW 225 -0,9 C 0,0 C 0,0 km/h (0 Bft)
10.04.2014 06:35 5,3 C 64 % 1021,3 hPa 0,0 l/m 0,0 km/h (0 Bft) SW 225 -0,9 C 0,0 C 0,0 km/h (0 Bft)
10.04.2014 06:40 5,4 C 64 % 1021,3 hPa 0,0 l/m 0,0 km/h (0 Bft) SW 225 -0,9 C 0,0 C 0,0 km/h (0 Bft)
10.04.2014 06:45 5,3 C 65 % 1021,4 hPa 0,0 l/m 0,0 km/h (0 Bft) SW 225 -0,7 C 0,0 C 0,0 km/h (0 Bft)
10.04.2014 06:50 5,3 C 65 % 1021,4 hPa 0,0 l/m 0,0 km/h (0 Bft) SW 225 -0,7 C 0,0 C 0,0 km/h (0 Bft)
10.04.2014 06:55 5,4 C 65 % 1021,4 hPa 0,0 l/m 0,0 km/h (0 Bft) SW 225 -0,6 C 0,0 C 0,0 km/h (0 Bft)
10.04.2014 07:00 5,5 C 65 % 1021,4 hPa 0,0 l/m 0,0 km/h (0 Bft) SW 225 -0,5 C 0,0 C 0,0 km/h (0 Bft)
10.04.2014 07:05 5,5 C 65 % 1021,7 hPa 0,0 l/m 0,0 km/h (0 Bft) SW 225 -0,5 C 0,0 C 0,0 km/h (0 Bft)
10.04.2014 07:10 5,6 C 65 % 1021,7 hPa 0,0 l/m 0,0 km/h (0 Bft) SW 225 -0,4 C 0,0 C 0,0 km/h (0 Bft)
10.04.2014 07:15 5,6 C 64 % 1021,7 hPa 0,0 l/m 0,0 km/h (0 Bft) SW 225 -0,7 C 0,0 C 0,0 km/h (0 Bft)
10.04.2014 07:20 5,7 C 64 % 1021,7 hPa 0,0 l/m 0,0 km/h (0 Bft) SW 225 -0,6 C 0,0 C 0,0 km/h (0 Bft)
10.04.2014 07:25 5,7 C 64 % 1021,9 hPa 0,0 l/m 0,0 km/h (0 Bft) SW 225 -0,6 C 0,0 C 0,0 km/h (0 Bft)
10.04.2014 07:30 5,7 C 64 % 1021,9 hPa 0,0 l/m 0,0 km/h (0 Bft) SW 225 -0,6 C 0,0 C 0,0 km/h (0 Bft)
10.04.2014 07:35 5,7 C 64 % 1021,9 hPa 0,0 l/m 0,0 km/h (0 Bft) SW 225 -0,6 C 0,0 C 0,0 km/h (0 Bft)
10.04.2014 07:40 5,6 C 65 % 1021,9 hPa 0,0 l/m 0,0 km/h (0 Bft) SW 225 -0,4 C 0,0 C 0,0 km/h (0 Bft)
10.04.2014 07:45 5,7 C 65 % 1021,9 hPa 0,0 l/m 0,0 km/h (0 Bft) SW 225 -0,4 C 0,0 C 0,0 km/h (0 Bft)
10.04.2014 07:50 5,7 C 66 % 1021,9 hPa 0,0 l/m 0,0 km/h (0 Bft) SW 225 -0,1 C 0,0 C 0,0 km/h (0 Bft)
10.04.2014 07:55 5,7 C 66 % 1021,9 hPa 0,0 l/m 0,0 km/h (0 Bft) SW 225 -0,1 C 0,0 C 0,0 km/h (0 Bft)
10.04.2014 08:00 5,8 C 67 % 1021,9 hPa 0,0 l/m 0,0 km/h (0 Bft) SW 225 0,2 C 0,0 C 0,0 km/h (0 Bft)
10.04.2014 08:05 5,9 C 67 % 1022,2 hPa 0,0 l/m 0,0 km/h (0 Bft) SW 225 0,3 C 0,0 C 0,0 km/h (0 Bft)
10.04.2014 08:10 6,1 C 65 % 1022,2 hPa 0,0 l/m 0,0 km/h (0 Bft) SW 225 0,0 C 0,0 C 0,0 km/h (0 Bft)
10.04.2014 08:15 6,2 C 65 % 1022,2 hPa 0,0 l/m 0,0 km/h (0 Bft) SW 225 0,1 C 0,0 C 0,0 km/h (0 Bft)
10.04.2014 08:20 6,2 C 65 % 1022,2 hPa 0,0 l/m 0,0 km/h (0 Bft) SW 225 0,1 C 0,0 C 0,0 km/h (0 Bft)
10.04.2014 08:25 6,2 C 65 % 1022,1 hPa 0,0 l/m 0,0 km/h (0 Bft) SW 225 0,1 C 0,0 C 0,0 km/h (0 Bft)
10.04.2014 08:30 6,2 C 65 % 1022,1 hPa 0,0 l/m 0,0 km/h (0 Bft) SW 225 0,1 C 0,0 C 0,0 km/h (0 Bft)
10.04.2014 08:35 6,2 C 66 % 1022,1 hPa 0,0 l/m 0,0 km/h (0 Bft) SW 225 0,3 C 0,0 C 0,0 km/h (0 Bft)
10.04.2014 08:40 6,3 C 66 % 1022,1 hPa 0,0 l/m 0,0 km/h (0 Bft) SW 225 0,4 C 0,0 C 0,0 km/h (0 Bft)
10.04.2014 08:45 6,4 C 65 % 1022,3 hPa 0,0 l/m 0,0 km/h (0 Bft) SW 225 0,3 C 0,0 C 0,0 km/h (0 Bft)
10.04.2014 08:50 6,7 C 65 % 1022,3 hPa 0,0 l/m 0,0 km/h (0 Bft) SW 225 0,6 C 0,0 C 0,0 km/h (0 Bft)
10.04.2014 08:55 7,0 C 64 % 1022,3 hPa 0,0 l/m 0,0 km/h (0 Bft) SW 225 0,7 C 0,0 C 0,0 km/h (0 Bft)
10.04.2014 09:00 7,3 C 63 % 1022,3 hPa 0,0 l/m 0,0 km/h (0 Bft) SW 225 0,7 C 0,0 C 0,0 km/h (0 Bft)
10.04.2014 09:05 7,4 C 62 % 1022,5 hPa 0,0 l/m 0,0 km/h (0 Bft) SW 225 0,6 C 0,0 C 0,0 km/h (0 Bft)
10.04.2014 09:10 7,3 C 63 % 1022,5 hPa 0,0 l/m 0,0 km/h (0 Bft) SW 225 0,7 C 0,0 C 0,0 km/h (0 Bft)
10.04.2014 09:15 7,2 C 63 % 1022,5 hPa 0,0 l/m 0,0 km/h (0 Bft) SW 225 0,6 C 0,0 C 0,0 km/h (0 Bft)
10.04.2014 09:20 7,2 C 63 % 1022,5 hPa 0,0 l/m 0,0 km/h (0 Bft) SW 225 0,6 C 0,0 C 0,0 km/h (0 Bft)
10.04.2014 09:25 7,4 C 63 % 1022,5 hPa 0,0 l/m 0,0 km/h (0 Bft) SW 225 0,8 C 0,0 C 0,0 km/h (0 Bft)
10.04.2014 09:30 7,7 C 63 % 1022,5 hPa 0,0 l/m 0,0 km/h (0 Bft) SW 225 1,1 C 0,0 C 0,0 km/h (0 Bft)
10.04.2014 09:35 7,6 C 61 % 1022,5 hPa 0,0 l/m 0,0 km/h (0 Bft) SW 225 0,6 C 0,0 C 0,0 km/h (0 Bft)
10.04.2014 09:40 7,6 C 61 % 1022,5 hPa 0,0 l/m 0,0 km/h (0 Bft) SW 225 0,6 C 0,0 C 0,0 km/h (0 Bft)
10.04.2014 09:45 7,8 C 62 % 1022,5 hPa 0,0 l/m 0,0 km/h (0 Bft) SW 225 1,0 C 0,0 C 0,0 km/h (0 Bft)
10.04.2014 09:50 7,9 C 61 % 1022,8 hPa 0,0 l/m 0,0 km/h (0 Bft) SW 225 0,9 C 0,0 C 0,0 km/h (0 Bft)
10.04.2014 09:55 8,3 C 60 % 1022,8 hPa 0,0 l/m 0,0 km/h (0 Bft) SW 225 1,0 C 0,0 C 0,0 km/h (0 Bft)
10.04.2014 10:00 8,5 C 60 % 1022,8 hPa 0,0 l/m 0,0 km/h (0 Bft) SW 225 1,2 C 0,0 C 0,0 km/h (0 Bft)
10.04.2014 10:05 8,7 C 59 % 1022,8 hPa 0,0 l/m 0,0 km/h (0 Bft) SW 225 1,1 C 0,0 C 0,0 km/h (0 Bft)
10.04.2014 10:10 9,1 C 57 % 1022,9 hPa 0,0 l/m 0,0 km/h (0 Bft) SW 225 1,0 C 0,0 C 0,0 km/h (0 Bft)
10.04.2014 10:15 9,1 C 56 % 1022,9 hPa 0,0 l/m 0,0 km/h (0 Bft) SW 225 0,8 C 0,0 C 0,0 km/h (0 Bft)
10.04.2014 10:20 8,9 C 56 % 1022,9 hPa 0,0 l/m 0,0 km/h (0 Bft) SW 225 0,6 C 0,0 C 0,0 km/h (0 Bft)
10.04.2014 10:25 9,2 C 56 % 1022,9 hPa 0,0 l/m 0,0 km/h (0 Bft) SW 225 0,9 C 0,0 C 0,0 km/h (0 Bft)
10.04.2014 10:30 9,2 C 55 % 1023,3 hPa 0,0 l/m 0,0 km/h (0 Bft) SW 225 0,6 C 0,0 C 0,0 km/h (0 Bft)
10.04.2014 10:35 9,1 C 55 % 1023,3 hPa 0,0 l/m 0,0 km/h (0 Bft) SW 225 0,5 C 0,0 C 0,0 km/h (0 Bft)
10.04.2014 10:40 9,4 C 56 % 1023,3 hPa 0,0 l/m 0,0 km/h (0 Bft) SW 225 1,1 C 0,0 C 0,0 km/h (0 Bft)
10.04.2014 10:45 9,8 C 54 % 1023,3 hPa 0,0 l/m 0,0 km/h (0 Bft) SW 225 0,9 C 0,0 C 0,0 km/h (0 Bft)
10.04.2014 10:50 9,5 C 55 % 1023,4 hPa 0,0 l/m 0,0 km/h (0 Bft) SW 225 0,9 C 0,0 C 0,0 km/h (0 Bft)
10.04.2014 10:55 9,9 C 57 % 1023,4 hPa 0,0 l/m 0,0 km/h (0 Bft) SW 225 1,8 C 0,0 C 0,0 km/h (0 Bft)
10.04.2014 11:00 9,9 C 56 % 1023,4 hPa 0,0 l/m 0,0 km/h (0 Bft) SW 225 1,5 C 0,0 C 0,0 km/h (0 Bft)
10.04.2014 11:05 9,5 C 58 % 1023,4 hPa 0,0 l/m 0,0 km/h (0 Bft) SW 225 1,7 C 0,0 C 0,0 km/h (0 Bft)
10.04.2014 11:10 9,4 C 58 % 1023,7 hPa 0,0 l/m 0,0 km/h (0 Bft) SW 225 1,6 C 0,0 C 0,0 km/h (0 Bft)
10.04.2014 11:15 9,5 C 59 % 1023,7 hPa 0,0 l/m 0,0 km/h (0 Bft) SW 225 1,9 C 0,0 C 0,0 km/h (0 Bft)
10.04.2014 11:20 9,7 C 57 % 1023,7 hPa 0,0 l/m 0,0 km/h (0 Bft) SW 225 1,6 C 0,0 C 0,0 km/h (0 Bft)
10.04.2014 11:25 9,7 C 57 % 1023,7 hPa 0,0 l/m 0,0 km/h (0 Bft) SW 225 1,6 C 0,0 C 0,0 km/h (0 Bft)
10.04.2014 11:29 9,9 C 57 % 1023,6 hPa 0,0 l/m 0,0 km/h (0 Bft) SW 225 1,8 C 0,0 C 0,0 km/h (0 Bft)
10.04.2014 11:30 10,0 C 56 % 1023,6 hPa 0,0 l/m 0,0 km/h (0 Bft) SW 225 1,6 C 0,0 C 0,0 km/h (0 Bft)
10.04.2014 11:35 10,3 C 56 % 1023,6 hPa 0,0 l/m 0,0 km/h (0 Bft) SW 225 1,9 C 0,0 C 0,0 km/h (0 Bft)
10.04.2014 11:40 10,1 C 55 % 1023,6 hPa 0,0 l/m 0,0 km/h (0 Bft) SW 225 1,5 C 0,0 C 0,0 km/h (0 Bft)
10.04.2014 11:45 10,1 C 56 % 1023,2 hPa 0,0 l/m 0,0 km/h (0 Bft) SW 225 1,7 C 0,0 C 0,0 km/h (0 Bft)
10.04.2014 11:50 10,6 C 57 % 1023,2 hPa 0,0 l/m 0,0 km/h (0 Bft) SW 225 2,4 C 0,0 C 0,0 km/h (0 Bft)
10.04.2014 11:55 10,6 C 55 % 1023,2 hPa 0,0 l/m 0,0 km/h (0 Bft) SW 225 1,9 C 0,0 C 0,0 km/h (0 Bft)
10.04.2014 12:00 11,0 C 55 % 1023,2 hPa 0,0 l/m 0,0 km/h (0 Bft) SW 225 2,3 C 0,0 C 0,0 km/h (0 Bft)
10.04.2014 12:05 11,2 C 55 % 1023,2 hPa 0,0 l/m 0,0 km/h (0 Bft) SW 225 2,5 C 0,0 C 0,0 km/h (0 Bft)
10.04.2014 12:10 10,6 C 54 % 1023,2 hPa 0,0 l/m 0,0 km/h (0 Bft) SW 225 1,7 C 0,0 C 0,0 km/h (0 Bft)
10.04.2014 12:15 10,5 C 54 % 1023,2 hPa 0,0 l/m 0,0 km/h (0 Bft) SW 225 1,6 C 0,0 C 0,0 km/h (0 Bft)
10.04.2014 12:20 10,6 C 53 % 1023,2 hPa 0,0 l/m 0,0 km/h (0 Bft) SW 225 1,4 C 0,0 C 0,0 km/h (0 Bft)
10.04.2014 12:25 10,7 C 54 % 1023,4 hPa 0,0 l/m 0,0 km/h (0 Bft) SW 225 1,8 C 0,0 C 0,0 km/h (0 Bft)
10.04.2014 12:30 10,4 C 55 % 1023,4 hPa 0,0 l/m 0,0 km/h (0 Bft) SW 225 1,8 C 0,0 C 0,0 km/h (0 Bft)
10.04.2014 12:35 10,2 C 55 % 1023,4 hPa 0,0 l/m 0,0 km/h (0 Bft) SW 225 1,6 C 0,0 C 0,0 km/h (0 Bft)
10.04.2014 12:40 9,9 C 54 % 1023,4 hPa 0,0 l/m 0,0 km/h (0 Bft) SW 225 1,0 C 0,0 C 0,0 km/h (0 Bft)
10.04.2014 12:46 9,8 C 56 % 1023,4 hPa 0,0 l/m 0,0 km/h (0 Bft) SW 225 1,4 C 0,0 C 0,0 km/h (0 Bft)
10.04.2014 12:50 10,3 C 57 % 1023,4 hPa 0,0 l/m 0,0 km/h (0 Bft) SW 225 2,2 C 0,0 C 0,0 km/h (0 Bft)
10.04.2014 12:55 10,0 C 58 % 1023,4 hPa 0,0 l/m 0,0 km/h (0 Bft) SW 225 2,1 C 0,0 C 0,0 km/h (0 Bft)
10.04.2014 13:00 10,1 C 59 % 1023,4 hPa 0,0 l/m 0,0 km/h (0 Bft) SW 225 2,5 C 0,0 C 0,0 km/h (0 Bft)
10.04.2014 13:05 10,3 C 59 % 1023,2 hPa 0,0 l/m 0,0 km/h (0 Bft) SW 225 2,6 C 0,0 C 0,0 km/h (0 Bft)
10.04.2014 13:10 10,0 C 58 % 1023,2 hPa 0,0 l/m 0,0 km/h (0 Bft) SW 225 2,1 C 0,0 C 0,0 km/h (0 Bft)
10.04.2014 13:15 10,5 C 59 % 1023,2 hPa 0,0 l/m 0,0 km/h (0 Bft) SW 225 2,8 C 0,0 C 0,0 km/h (0 Bft)
10.04.2014 13:20 10,9 C 57 % 1023,2 hPa 0,0 l/m 0,0 km/h (0 Bft) SW 225 2,7 C 0,0 C 0,0 km/h (0 Bft)
10.04.2014 13:25 11,2 C 57 % 1023,2 hPa 0,0 l/m 0,0 km/h (0 Bft) SW 225 3,0 C 0,0 C 0,0 km/h (0 Bft)
10.04.2014 13:30 11,0 C 57 % 1023,2 hPa 0,0 l/m 0,0 km/h (0 Bft) SW 225 2,8 C 0,0 C 0,0 km/h (0 Bft)
10.04.2014 13:35 11,2 C 58 % 1023,2 hPa 0,0 l/m 0,0 km/h (0 Bft) SW 225 3,2 C 0,0 C 0,0 km/h (0 Bft)
10.04.2014 13:40 11,1 C 57 % 1023,2 hPa 0,0 l/m 0,0 km/h (0 Bft) SW 225 2,9 C 0,0 C 0,0 km/h (0 Bft)
10.04.2014 13:45 10,7 C 57 % 1023,0 hPa 0,0 l/m 0,0 km/h (0 Bft) SW 225 2,5 C 0,0 C 0,0 km/h (0 Bft)
10.04.2014 13:50 10,7 C 56 % 1023,0 hPa 0,0 l/m 0,0 km/h (0 Bft) SW 225 2,3 C 0,0 C 0,0 km/h (0 Bft)
10.04.2014 13:55 10,7 C 56 % 1023,0 hPa 0,0 l/m 0,0 km/h (0 Bft) SW 225 2,3 C 0,0 C 0,0 km/h (0 Bft)
10.04.2014 14:00 10,9 C 56 % 1023,0 hPa 0,0 l/m 0,0 km/h (0 Bft) SW 225 2,5 C 0,0 C 0,0 km/h (0 Bft)
10.04.2014 14:05 11,2 C 56 % 1023,1 hPa 0,0 l/m 0,0 km/h (0 Bft) SW 225 2,8 C 0,0 C 0,0 km/h (0 Bft)
10.04.2014 14:10 11,1 C 55 % 1023,1 hPa 0,0 l/m 0,0 km/h (0 Bft) SW 225 2,4 C 0,0 C 0,0 km/h (0 Bft)
10.04.2014 14:15 11,0 C 55 % 1023,1 hPa 0,0 l/m 0,0 km/h (0 Bft) SW 225 2,3 C 0,0 C 0,0 km/h (0 Bft)
10.04.2014 14:20 11,0 C 55 % 1023,1 hPa 0,0 l/m 0,0 km/h (0 Bft) SW 225 2,3 C 0,0 C 0,0 km/h (0 Bft)
10.04.2014 14:25 11,0 C 56 % 1022,9 hPa 0,0 l/m 0,0 km/h (0 Bft) SW 225 2,6 C 0,0 C 0,0 km/h (0 Bft)
10.04.2014 14:30 11,2 C 56 % 1022,9 hPa 0,0 l/m 0,0 km/h (0 Bft) SW 225 2,8 C 0,0 C 0,0 km/h (0 Bft)
10.04.2014 14:35 11,0 C 55 % 1022,9 hPa 0,0 l/m 0,0 km/h (0 Bft) SW 225 2,3 C 0,0 C 0,0 km/h (0 Bft)
10.04.2014 14:40 11,0 C 55 % 1022,9 hPa 0,0 l/m 0,0 km/h (0 Bft) SW 225 2,3 C 0,0 C 0,0 km/h (0 Bft)
10.04.2014 14:45 11,0 C 55 % 1022,9 hPa 0,0 l/m 0,0 km/h (0 Bft) SW 225 2,3 C 0,0 C 0,0 km/h (0 Bft)
10.04.2014 14:50 11,1 C 56 % 1022,8 hPa 0,0 l/m 0,0 km/h (0 Bft) SW 225 2,7 C 0,0 C 0,0 km/h (0 Bft)
10.04.2014 14:55 10,9 C 55 % 1022,8 hPa 0,0 l/m 0,0 km/h (0 Bft) SW 225 2,2 C 0,0 C 0,0 km/h (0 Bft)
10.04.2014 15:00 10,9 C 56 % 1022,8 hPa 0,0 l/m 0,0 km/h (0 Bft) SW 225 2,5 C 0,0 C 0,0 km/h (0 Bft)
10.04.2014 15:05 11,5 C 56 % 1022,8 hPa 0,0 l/m 0,0 km/h (0 Bft) SW 225 3,0 C 0,0 C 0,0 km/h (0 Bft)
10.04.2014 15:10 11,6 C 56 % 1022,6 hPa 0,0 l/m 0,0 km/h (0 Bft) SW 225 3,1 C 0,0 C 0,0 km/h (0 Bft)
10.04.2014 15:15 11,9 C 55 % 1022,6 hPa 0,0 l/m 0,0 km/h (0 Bft) SW 225 3,2 C 0,0 C 0,0 km/h (0 Bft)
10.04.2014 15:20 12,0 C 55 % 1022,6 hPa 0,0 l/m 0,0 km/h (0 Bft) SW 225 3,2 C 0,0 C 0,0 km/h (0 Bft)
10.04.2014 15:25 11,9 C 55 % 1022,6 hPa 0,0 l/m 0,0 km/h (0 Bft) SW 225 3,2 C 0,0 C 0,0 km/h (0 Bft)
10.04.2014 15:30 12,1 C 56 % 1022,6 hPa 0,0 l/m 0,0 km/h (0 Bft) SW 225 3,6 C 0,0 C 0,0 km/h (0 Bft)
10.04.2014 15:35 11,9 C 55 % 1022,6 hPa 0,0 l/m 0,0 km/h (0 Bft) SW 225 3,2 C 0,0 C 0,0 km/h (0 Bft)
10.04.2014 15:40 11,6 C 54 % 1022,6 hPa 0,0 l/m 0,0 km/h (0 Bft) SW 225 2,6 C 0,0 C 0,0 km/h (0 Bft)
10.04.2014 15:45 11,4 C 55 % 1022,6 hPa 0,0 l/m 0,0 km/h (0 Bft) SW 225 2,7 C 0,0 C 0,0 km/h (0 Bft)
10.04.2014 15:50 11,4 C 56 % 1022,5 hPa 0,0 l/m 0,0 km/h (0 Bft) SW 225 2,9 C 0,0 C 0,0 km/h (0 Bft)
10.04.2014 15:55 11,3 C 55 % 1022,5 hPa 0,0 l/m 0,0 km/h (0 Bft) SW 225 2,6 C 0,0 C 0,0 km/h (0 Bft)
10.04.2014 16:00 11,0 C 57 % 1022,5 hPa 0,0 l/m 0,0 km/h (0 Bft) SW 225 2,8 C 0,0 C 0,0 km/h (0 Bft)
10.04.2014 16:05 10,9 C 57 % 1022,5 hPa 0,0 l/m 0,0 km/h (0 Bft) SW 225 2,7 C 0,0 C 0,0 km/h (0 Bft)
10.04.2014 16:10 10,7 C 56 % 1022,2 hPa 0,0 l/m 0,0 km/h (0 Bft) SW 225 2,3 C 0,0 C 0,0 km/h (0 Bft)
10.04.2014 16:15 10,9 C 58 % 1022,2 hPa 0,0 l/m 0,0 km/h (0 Bft) SW 225 3,0 C 0,0 C 0,0 km/h (0 Bft)
10.04.2014 16:20 11,0 C 58 % 1022,2 hPa 0,0 l/m 0,0 km/h (0 Bft) SW 225 3,1 C 0,0 C 0,0 km/h (0 Bft)
10.04.2014 16:25 10,8 C 59 % 1022,2 hPa 0,0 l/m 0,0 km/h (0 Bft) SW 225 3,1 C 0,0 C 0,0 km/h (0 Bft)
10.04.2014 16:28 10,7 C 59 % 1021,8 hPa 0,0 l/m 0,0 km/h (0 Bft) SW 225 3,0 C 0,0 C 0,0 km/h (0 Bft)
10.04.2014 16:30 10,8 C 59 % 1021,8 hPa 0,0 l/m 0,0 km/h (0 Bft) SW 225 3,1 C 0,0 C 0,0 km/h (0 Bft)
10.04.2014 16:35 10,8 C 59 % 1021,8 hPa 0,0 l/m 0,0 km/h (0 Bft) SW 225 3,1 C 0,0 C 0,0 km/h (0 Bft)
10.04.2014 16:40 10,5 C 59 % 1021,8 hPa 0,0 l/m 0,0 km/h (0 Bft) SW 225 2,8 C 0,0 C 0,0 km/h (0 Bft)
10.04.2014 16:45 10,2 C 60 % 1021,8 hPa 0,0 l/m 0,0 km/h (0 Bft) SW 225 2,8 C 0,0 C 0,0 km/h (0 Bft)
10.04.2014 16:50 10,0 C 62 % 1021,8 hPa 0,0 l/m 0,0 km/h (0 Bft) SW 225 3,1 C 0,0 C 0,0 km/h (0 Bft)
10.04.2014 16:55 9,9 C 63 % 1021,8 hPa 0,0 l/m 0,0 km/h (0 Bft) SW 225 3,2 C 0,0 C 0,0 km/h (0 Bft)
10.04.2014 17:00 9,8 C 65 % 1021,8 hPa 0,0 l/m 0,0 km/h (0 Bft) SW 225 3,5 C 0,0 C 0,0 km/h (0 Bft)
10.04.2014 17:05 9,7 C 66 % 1020,9 hPa 0,0 l/m 0,0 km/h (0 Bft) SW 225 3,7 C 0,0 C 0,0 km/h (0 Bft)
10.04.2014 17:10 9,6 C 68 % 1020,9 hPa 0,0 l/m 0,0 km/h (0 Bft) SW 225 4,0 C 0,0 C 0,0 km/h (0 Bft)
10.04.2014 17:15 9,6 C 68 % 1020,9 hPa 0,0 l/m 0,0 km/h (0 Bft) SW 225 4,0 C 0,0 C 0,0 km/h (0 Bft)
10.04.2014 17:20 9,6 C 69 % 1020,9 hPa 0,0 l/m 0,0 km/h (0 Bft) SW 225 4,2 C 0,0 C 0,0 km/h (0 Bft)
10.04.2014 17:25 9,4 C 70 % 1021,3 hPa 0,0 l/m 0,0 km/h (0 Bft) SW 225 4,2 C 0,0 C 0,0 km/h (0 Bft)
10.04.2014 17:30 9,0 C 73 % 1021,3 hPa 0,0 l/m 0,0 km/h (0 Bft) SW 225 4,4 C 0,0 C 0,0 km/h (0 Bft)
10.04.2014 17:35 8,9 C 76 % 1021,3 hPa 0,0 l/m 0,0 km/h (0 Bft) SW 225 4,9 C 0,0 C 0,0 km/h (0 Bft)
10.04.2014 17:40 8,6 C 81 % 1021,3 hPa 0,0 l/m 0,0 km/h (0 Bft) SW 225 5,5 C 0,0 C 0,0 km/h (0 Bft)
10.04.2014 17:45 8,5 C 82 % 1021,1 hPa 0,0 l/m 0,0 km/h (0 Bft) SW 225 5,6 C 0,0 C 0,0 km/h (0 Bft)
10.04.2014 17:50 8,4 C 84 % 1021,1 hPa 0,0 l/m 0,0 km/h (0 Bft) SW 225 5,9 C 0,0 C 0,0 km/h (0 Bft)
10.04.2014 17:55 8,4 C 85 % 1021,1 hPa 0,0 l/m 0,0 km/h (0 Bft) SW 225 6,0 C 0,0 C 0,0 km/h (0 Bft)
10.04.2014 18:00 8,4 C 85 % 1021,1 hPa 0,0 l/m 0,0 km/h (0 Bft) SW 225 6,0 C 0,0 C 0,0 km/h (0 Bft)
10.04.2014 18:05 8,5 C 86 % 1021,0 hPa 0,0 l/m 0,0 km/h (0 Bft) SW 225 6,3 C 0,0 C 0,0 km/h (0 Bft)
10.04.2014 18:10 8,4 C 85 % 1021,0 hPa 0,0 l/m 0,0 km/h (0 Bft) SW 225 6,0 C 0,0 C 0,0 km/h (0 Bft)
10.04.2014 18:15 8,4 C 86 % 1021,0 hPa 0,0 l/m 0,0 km/h (0 Bft) SW 225 6,2 C 0,0 C 0,0 km/h (0 Bft)
10.04.2014 18:20 8,4 C 86 % 1021,0 hPa 0,0 l/m 0,0 km/h (0 Bft) SW 225 6,2 C 0,0 C 0,0 km/h (0 Bft)
10.04.2014 18:25 8,3 C 86 % 1020,9 hPa 0,0 l/m 0,0 km/h (0 Bft) SW 225 6,1 C 0,0 C 0,0 km/h (0 Bft)
10.04.2014 18:30 8,4 C 87 % 1020,9 hPa 0,0 l/m 0,0 km/h (0 Bft) SW 225 6,4 C 0,0 C 0,0 km/h (0 Bft)
10.04.2014 18:35 8,4 C 88 % 1020,9 hPa 0,0 l/m 0,0 km/h (0 Bft) SW 225 6,5 C 0,0 C 0,0 km/h (0 Bft)
10.04.2014 18:40 8,3 C 88 % 1020,9 hPa 0,0 l/m 0,0 km/h (0 Bft) SW 225 6,4 C 0,0 C 0,0 km/h (0 Bft)
10.04.2014 18:45 8,3 C 88 % 1020,6 hPa 0,0 l/m 0,0 km/h (0 Bft) SW 225 6,4 C 0,0 C 0,0 km/h (0 Bft)
10.04.2014 18:50 8,2 C 88 % 1020,6 hPa 0,0 l/m 0,0 km/h (0 Bft) SW 225 6,3 C 0,0 C 0,0 km/h (0 Bft)
10.04.2014 18:55 8,1 C 88 % 1020,6 hPa 0,0 l/m 0,0 km/h (0 Bft) SW 225 6,2 C 0,0 C 0,0 km/h (0 Bft)
10.04.2014 19:00 8,0 C 88 % 1020,6 hPa 0,0 l/m 0,0 km/h (0 Bft) SW 225 6,1 C 0,0 C 0,0 km/h (0 Bft)
10.04.2014 19:05 8,0 C 89 % 1020,2 hPa 0,0 l/m 0,0 km/h (0 Bft) SW 225 6,3 C 0,0 C 0,0 km/h (0 Bft)
10.04.2014 19:10 7,9 C 90 % 1020,2 hPa 0,0 l/m 0,0 km/h (0 Bft) SW 225 6,4 C 0,0 C 0,0 km/h (0 Bft)
10.04.2014 19:15 7,8 C 90 % 1020,2 hPa 0,0 l/m 0,0 km/h (0 Bft) SW 225 6,3 C 0,0 C 0,0 km/h (0 Bft)
10.04.2014 19:20 7,9 C 90 % 1020,2 hPa 0,0 l/m 0,0 km/h (0 Bft) SW 225 6,4 C 0,0 C 0,0 km/h (0 Bft)
10.04.2014 19:25 7,8 C 90 % 1020,4 hPa 0,0 l/m 0,0 km/h (0 Bft) SW 225 6,3 C 0,0 C 0,0 km/h (0 Bft)
10.04.2014 19:30 7,7 C 90 % 1020,4 hPa 0,0 l/m 0,0 km/h (0 Bft) SW 225 6,2 C 0,0 C 0,0 km/h (0 Bft)
10.04.2014 19:35 7,7 C 90 % 1020,4 hPa 0,0 l/m 0,0 km/h (0 Bft) SW 225 6,2 C 0,0 C 0,0 km/h (0 Bft)
10.04.2014 19:40 7,7 C 90 % 1020,4 hPa 0,0 l/m 0,0 km/h (0 Bft) SW 225 6,2 C 0,0 C 0,0 km/h (0 Bft)
10.04.2014 19:45 7,6 C 91 % 1020,4 hPa 0,0 l/m 0,0 km/h (0 Bft) SW 225 6,2 C 0,0 C 0,0 km/h (0 Bft)
10.04.2014 19:50 7,6 C 91 % 1020,4 hPa 0,0 l/m 0,0 km/h (0 Bft) SW 225 6,2 C 0,0 C 0,0 km/h (0 Bft)
10.04.2014 19:55 7,5 C 91 % 1020,4 hPa 0,0 l/m 0,0 km/h (0 Bft) SW 225 6,1 C 0,0 C 0,0 km/h (0 Bft)
10.04.2014 20:00 7,4 C 91 % 1020,4 hPa 0,0 l/m 0,0 km/h (0 Bft) SW 225 6,0 C 0,0 C 0,0 km/h (0 Bft)
10.04.2014 20:05 7,4 C 91 % 1020,4 hPa 0,0 l/m 0,0 km/h (0 Bft) SW 225 6,0 C 0,0 C 0,0 km/h (0 Bft)
10.04.2014 20:10 7,3 C 91 % 1020,3 hPa 0,0 l/m 0,0 km/h (0 Bft) SW 225 5,9 C 0,0 C 0,0 km/h (0 Bft)
10.04.2014 20:15 7,2 C 91 % 1020,3 hPa 0,0 l/m 0,0 km/h (0 Bft) SW 225 5,8 C 0,0 C 0,0 km/h (0 Bft)
10.04.2014 20:20 7,1 C 91 % 1020,3 hPa 0,0 l/m 0,0 km/h (0 Bft) SW 225 5,7 C 0,0 C 0,0 km/h (0 Bft)
10.04.2014 20:25 7,1 C 92 % 1020,3 hPa 0,0 l/m 0,0 km/h (0 Bft) SW 225 5,9 C 0,0 C 0,0 km/h (0 Bft)
10.04.2014 20:30 7,0 C 92 % 1020,5 hPa 0,0 l/m 0,0 km/h (0 Bft) SW 225 5,8 C 0,0 C 0,0 km/h (0 Bft)
10.04.2014 20:35 7,0 C 92 % 1020,5 hPa 0,0 l/m 0,0 km/h (0 Bft) SW 225 5,8 C 0,0 C 0,0 km/h (0 Bft)
10.04.2014 20:40 7,0 C 92 % 1020,5 hPa 0,0 l/m 0,0 km/h (0 Bft) SW 225 5,8 C 0,0 C 0,0 km/h (0 Bft)
10.04.2014 20:45 6,9 C 92 % 1020,5 hPa 0,0 l/m 0,0 km/h (0 Bft) SW 225 5,7 C 0,0 C 0,0 km/h (0 Bft)
10.04.2014 20:50 6,9 C 92 % 1020,4 hPa 0,0 l/m 0,0 km/h (0 Bft) SW 225 5,7 C 0,0 C 0,0 km/h (0 Bft)
10.04.2014 20:55 6,9 C 92 % 1020,4 hPa 0,0 l/m 0,0 km/h (0 Bft) SW 225 5,7 C 0,0 C 0,0 km/h (0 Bft)
10.04.2014 21:00 6,9 C 92 % 1020,4 hPa 0,0 l/m 0,0 km/h (0 Bft) SW 225 5,7 C 0,0 C 0,0 km/h (0 Bft)
10.04.2014 21:05 6,9 C 92 % 1020,4 hPa 0,0 l/m 0,0 km/h (0 Bft) SW 225 5,7 C 0,0 C 0,0 km/h (0 Bft)
10.04.2014 21:10 7,0 C 92 % 1020,6 hPa 0,0 l/m 0,0 km/h (0 Bft) SW 225 5,8 C 0,0 C 0,0 km/h (0 Bft)
10.04.2014 21:15 6,9 C 92 % 1020,6 hPa 0,0 l/m 0,0 km/h (0 Bft) SW 225 5,7 C 0,0 C 0,0 km/h (0 Bft)
10.04.2014 21:20 6,9 C 92 % 1020,6 hPa 0,0 l/m 0,0 km/h (0 Bft) SW 225 5,7 C 0,0 C 0,0 km/h (0 Bft)
10.04.2014 21:25 6,8 C 92 % 1020,6 hPa 0,0 l/m 0,0 km/h (0 Bft) SW 225 5,6 C 0,0 C 0,0 km/h (0 Bft)
10.04.2014 21:28 6,8 C 92 % 1020,5 hPa 0,0 l/m 0,0 km/h (0 Bft) SW 225 5,6 C 0,0 C 0,0 km/h (0 Bft)
10.04.2014 21:30 6,8 C 92 % 1020,5 hPa 0,0 l/m 0,0 km/h (0 Bft) SW 225 5,6 C 0,0 C 0,0 km/h (0 Bft)
10.04.2014 21:35 6,8 C 93 % 1020,5 hPa 0,0 l/m 0,0 km/h (0 Bft) SW 225 5,7 C 0,0 C 0,0 km/h (0 Bft)
10.04.2014 21:40 6,7 C 93 % 1020,5 hPa 0,0 l/m 0,0 km/h (0 Bft) SW 225 5,6 C 0,0 C 0,0 km/h (0 Bft)
10.04.2014 21:45 6,7 C 93 % 1020,7 hPa 0,0 l/m 0,0 km/h (0 Bft) SW 225 5,6 C 0,0 C 0,0 km/h (0 Bft)
10.04.2014 21:50 6,7 C 93 % 1020,7 hPa 0,0 l/m 0,0 km/h (0 Bft) SW 225 5,6 C 0,0 C 0,0 km/h (0 Bft)
10.04.2014 21:55 6,6 C 93 % 1020,7 hPa 0,0 l/m 0,0 km/h (0 Bft) SW 225 5,6 C 0,0 C 0,0 km/h (0 Bft)
10.04.2014 22:00 6,6 C 93 % 1020,7 hPa 0,0 l/m 0,0 km/h (0 Bft) SW 225 5,6 C 0,0 C 0,0 km/h (0 Bft)
10.04.2014 22:05 6,6 C 93 % 1020,7 hPa 0,0 l/m 0,0 km/h (0 Bft) SW 225 5,6 C 0,0 C 0,0 km/h (0 Bft)
10.04.2014 22:10 6,8 C 93 % 1020,7 hPa 0,0 l/m 0,0 km/h (0 Bft) SW 225 5,7 C 0,0 C 0,0 km/h (0 Bft)
10.04.2014 22:15 6,8 C 93 % 1020,7 hPa 0,0 l/m 0,0 km/h (0 Bft) SW 225 5,7 C 0,0 C 0,0 km/h (0 Bft)
10.04.2014 22:20 6,8 C 93 % 1020,7 hPa 0,0 l/m 0,0 km/h (0 Bft) SW 225 5,7 C 0,0 C 0,0 km/h (0 Bft)
10.04.2014 22:25 6,7 C 93 % 1020,7 hPa 0,0 l/m 0,0 km/h (0 Bft) SW 225 5,6 C 0,0 C 0,0 km/h (0 Bft)
10.04.2014 22:30 6,8 C 93 % 1020,7 hPa 0,0 l/m 0,0 km/h (0 Bft) SW 225 5,7 C 0,0 C 0,0 km/h (0 Bft)
10.04.2014 22:35 6,7 C 93 % 1020,7 hPa 0,0 l/m 0,0 km/h (0 Bft) SW 225 5,6 C 0,0 C 0,0 km/h (0 Bft)
10.04.2014 22:40 6,7 C 93 % 1020,7 hPa 0,0 l/m 0,0 km/h (0 Bft) SW 225 5,6 C 0,0 C 0,0 km/h (0 Bft)
10.04.2014 22:45 6,8 C 93 % 1020,4 hPa 0,0 l/m 0,0 km/h (0 Bft) SW 225 5,7 C 0,0 C 0,0 km/h (0 Bft)
10.04.2014 22:50 6,7 C 93 % 1020,4 hPa 0,0 l/m 0,0 km/h (0 Bft) SW 225 5,6 C 0,0 C 0,0 km/h (0 Bft)
10.04.2014 22:55 6,8 C 93 % 1020,4 hPa 0,0 l/m 0,0 km/h (0 Bft) SW 225 5,7 C 0,0 C 0,0 km/h (0 Bft)
10.04.2014 23:00 6,8 C 93 % 1020,4 hPa 0,0 l/m 0,0 km/h (0 Bft) SW 225 5,7 C 0,0 C 0,0 km/h (0 Bft)
10.04.2014 23:05 6,8 C 93 % 1020,4 hPa 0,0 l/m 0,0 km/h (0 Bft) SW 225 5,7 C 0,0 C 0,0 km/h (0 Bft)
10.04.2014 23:10 6,8 C 93 % 1020,4 hPa 0,0 l/m 0,0 km/h (0 Bft) SW 225 5,7 C 0,0 C 0,0 km/h (0 Bft)
10.04.2014 23:15 6,8 C 93 % 1020,4 hPa 0,0 l/m 0,0 km/h (0 Bft) SW 225 5,7 C 0,0 C 0,0 km/h (0 Bft)
10.04.2014 23:20 6,8 C 93 % 1020,4 hPa 0,0 l/m 0,0 km/h (0 Bft) SW 225 5,7 C 0,0 C 0,0 km/h (0 Bft)
10.04.2014 23:25 6,7 C 93 % 1020,4 hPa 0,0 l/m 0,0 km/h (0 Bft) SW 225 5,6 C 0,0 C 0,0 km/h (0 Bft)
10.04.2014 23:30 6,7 C 93 % 1020,4 hPa 0,0 l/m 0,0 km/h (0 Bft) SW 225 5,6 C 0,0 C 0,0 km/h (0 Bft)
10.04.2014 23:35 6,7 C 93 % 1020,4 hPa 0,0 l/m 0,0 km/h (0 Bft) SW 225 5,6 C 0,0 C 0,0 km/h (0 Bft)
10.04.2014 23:40 6,7 C 93 % 1020,4 hPa 0,0 l/m 0,0 km/h (0 Bft) SW 225 5,6 C 0,0 C 0,0 km/h (0 Bft)
10.04.2014 23:45 6,7 C 93 % 1020,5 hPa 0,0 l/m 0,0 km/h (0 Bft) SW 225 5,6 C 0,0 C 0,0 km/h (0 Bft)
10.04.2014 23:50 6,7 C 93 % 1020,5 hPa 0,0 l/m 0,0 km/h (0 Bft) SW 225 5,6 C 0,0 C 0,0 km/h (0 Bft)
10.04.2014 23:55 6,7 C 93 % 1020,5 hPa 0,0 l/m 0,0 km/h (0 Bft) SW 225 5,6 C 0,0 C 0,0 km/h (0 Bft)
_ Min-Zeit 03:15 12:20 19:20 - 23:55 - - 05:20 23:55 23:55
Minimum _ 2,5 C 53 % 1020,2 hPa - 0,0 km/h (0 Bft) - - -1,9 C 0,0 C 0,0 km/h (0 Bft)
_ Max-Zeit 15:30 23:55 00:05 23:55 23:55 - - 18:35 23:55 23:55
Maximum _ 12,1 C 93 % 1023,9 hPa 0,0 l/m 0,0 km/h
SW (0 Bft)
- - 6,5 C 0,0 C 0,0 km/h
SW (0 Bft)
Durchschnitt _ 7,2 C 71 % 1021,9 hPa #0,0 l/m 0,0 km/h (0 Bft) - - - 2,0 C 0,0 C 0,0 km/h (0 Bft)